Portada
METAR-TAF:

METAR-TAF

Aeroports :

Dare County Regional Airport

Manteo, Carolina del Nord, Estats Units d'Amèrica

latitud: 35-55N, longitud: 075-42W, altitud: 4 m

Observació

L'informe es va fer fa 34 minuts, a les 12:15 UTC
Vent 3 kt del Nord-Oest
Temperatura 25°C
Humitat 74%
Pressió 1017 hPa
Visibilitat: 16.1 km
Cel clar

METAR: KMQI 291215Z AUTO 32003KT 10SM CLR 25/20 A3003 RMK AO2 T02540204

Hora: 08:49 (12:49 UTC)


TAF: manca

Observacions i pronòstics meteorològics de més de 4000 aeroports (METAR i TAF).

Les estacions disponibles són els punts grocs i vermells al mapa.

Posi el ratolí al punt desitjat per veure el nom de l'estació.

Feu clic per veure les observacions i els pronòstics meteorològics.

Per canviar el mapa: feu clic els botons verds amb una creu de color negre per apropar; al botó verd amb un guió per allunyar la imatge; o en les fletxes verdes per a mapes adjacents.


METAR-TAF: